This demonstration page uses our WeatherBlox Daily Observations layout. Learn more.

Left ArrowRight Arrow

38.89511, -77.03637

Hourly Observations for May 22, 2018

Temp ( °F °C ) Dew Point ( °F °C ) Humidity (%) Winds ( mph kmh ) Pressure ( in mb ) Visibility ( mi km ) Precip ( " mm )
12:52 am 00:52 Cloudy 68 20 59 15 73 73 S 6 9 30.16 1021 10 16 0.00 0.00
1:52 am 01:52 Cloudy 67 19.4 59 15 76 76 S 6 9 30.14 1021 10 16 0.00 0.00
2:52 am 02:52 Cloudy 66 18.9 60 15.6 81 81 S 3 6 30.13 1020 10 16 0.00 0.00
3:52 am 03:52 Cloudy 66 18.9 59 15 78 78 S 6 9 30.12 1020 10 16 0.00 0.00
4:52 am 04:52 Mostly Cloudy 66 18.9 58 14.4 75 75 SSE 3 6 30.11 1020 10 16 0.00 0.00
5:18 am 05:18 Cloudy 66 18.9 59 15 78 78 SSW 3 6 30.12 1020 10 16 0.00 0.00
5:52 am 05:52 Cloudy 66 18.9 59 15 78 78 SE 3 6 30.11 1020 10 16 0.00 0.00
6:52 am 06:52 Cloudy with Light Rain 66 18.9 60 15.6 81 81 Calm 30.12 1020 10 16 0.00 0.03
7:52 am 07:52 Cloudy with Light Rain 67 19.4 60 15.6 79 79 Calm 30.12 1020 10 16 0.00 0.03
8:52 am 08:52 Cloudy 67 19.4 61 16.1 81 81 S 6 9 30.12 1020 10 16 0.01 0.25
9:52 am 09:52 Cloudy 68 20 61 16.1 78 78 S 6 9 30.11 1020 10 16 0.00 0.00
10:52 am 10:52 Cloudy 69 20.6 62 16.7 78 78 S 5 7 30.10 1019 10 16 0.00 0.00
11:52 am 11:52 Cloudy 71 21.7 64 17.8 79 79 S 8 13 30.08 1019 10 16 0.00 0.03
12:48 pm 12:48 Cloudy 72 22 64 18 78 78 S 10 17 30.09 1019 10 16 0.00 0.00
12:52 pm 12:52 Cloudy 71 21.7 65 18.3 81 81 S 10 17 30.07 1018 10 16 0.00 0.00
1:52 pm 13:52 Cloudy 73 22.8 66 18.9 79 79 SSE 9 15 30.05 1018 10 16 0.00 0.00
2:43 pm 14:43 Mostly Cloudy 77 25 68 20 74 74 SSE 6 9 30.00 1016 10 16 0.00 0.00
2:52 pm 14:52 Mostly Cloudy 76 24.4 67 19.4 74 74 SSE 8 13 30.01 1016 10 16 0.00 0.00
2:55 pm 14:55 Mostly Cloudy 76 24.4 67 19.4 74 74 S 7 11 30.00 1016 10 16 0.00 0.00
3:04 pm 15:04 Mostly Cloudy 77 25 68 20 74 74 SSE 8 13 30.00 1016 10 16 0.00 0.00
3:52 pm 15:52 Mostly Cloudy 77 25 68 20 74 74 S 8 13 29.98 1015 10 16 0.00 0.00
4:30 pm 16:30 Mostly Cloudy with Thunderstorms 78 25.6 68 20 71 71 S 6 9 30.00 1016 10 16 0.00 0.00
4:52 pm 16:52 Cloudy with Thunderstorms 73 22.8 64 17.8 74 74 NNE 17 28 30.00 1016 9 14 0.00 0.03
5:01 pm 17:01 Cloudy with Strong Thunderstorms 70 21.1 65 18.3 84 84 NW 13 20 30.00 1016 2 3 0.08 2.03
5:05 pm 17:05 Cloudy with Strong Thunderstorms 70 21.1 66 18.9 87 87 NW 10 17 30.00 1016 1 1 0.31 7.87
5:13 pm 17:13 Cloudy with Strong Thunderstorms 71 21.7 67 19.4 87 87 NW 18 30 30.00 1016 1 2 0.63 16.00
5:18 pm 17:18 Cloudy with Strong Thunderstorms 70 21.1 67 19.4 90 90 NW 9 15 29.97 1015 1 1 0.89 22.61
5:25 pm 17:25 Cloudy with Thunderstorms 70 21.1 67 19.4 90 90 WNW 10 17 30.00 1016 2 2 1.04 26.42
5:27 pm 17:27 Cloudy with Thunderstorms 71 21.7 67 19.4 87 87 VRB 7 11 30.00 1016 3 4 1.04 26.42
5:29 pm 17:29 Cloudy with Thunderstorms 71 21.7 68 20 90 90 WSW 10 17 30.00 1016 4 6 1.05 26.67
5:52 pm 17:52 Cloudy with Thunderstorms 70 21.1 67 19.4 90 90 ESE 6 9 29.99 1016 5 8 1.12 28.45
6:05 pm 18:05 Mostly Cloudy with Thunderstorms 69 20.6 67 19.4 93 93 SE 6 9 30.00 1016 6 10 0.03 0.76
6:52 pm 18:52 Mostly Cloudy with Thunderstorms 71 21.7 68 20 90 90 S 5 7 29.99 1016 10 16 0.07 1.78
7:00 pm 19:00 Mostly Cloudy with Nearby Thunderstorms 71 21.7 68 20 90 90 S 5 7 30.00 1016 10 16 0.00 0.00
7:16 pm 19:16 Mostly Cloudy 70 21.1 67 19.4 90 90 S 9 15 29.97 1015 10 16 0.00 0.00
7:38 pm 19:38 Mostly Cloudy 69 20.6 66 18.9 90 90 S 9 15 29.97 1015 10 16 0.00 0.00
7:52 pm 19:52 Mostly Cloudy 69 20.6 66 18.9 90 90 S 8 13 29.98 1015 10 16 0.00 0.00
8:52 pm 20:52 Mostly Cloudy 69 20.6 66 18.9 90 90 S 7 11 29.99 1016 10 16 0.00 0.00
9:52 pm 21:52 Mostly Cloudy 69 20.6 66 18.9 90 90 S 8 13 30.00 1016 10 16 0.00 0.00
10:06 pm 22:06 Cloudy with Light Rain 69 20.6 66 18.9 90 90 S 9 15 30.00 1016 10 16 0.00 0.03
10:32 pm 22:32 Cloudy with Light Rain 70 21.1 67 19.4 90 90 S 9 15 30.00 1016 10 16 0.01 0.25
10:34 pm 22:34 Cloudy with Thunderstorms 70 21.1 67 19.4 90 90 S 7 11 30.00 1016 10 16 0.02 0.51
10:42 pm 22:42 Cloudy with Thunderstorms 70 21.1 67 19.4 90 90 S 7 11 30.00 1016 8 13 0.02 0.51
10:48 pm 22:48 Cloudy with Light Rain 70 21 66 19 88 88 S 10 17 30.00 1016 10 16 0.03 0.76
10:52 pm 22:52 Cloudy with Light Rain 69 20.6 66 18.9 90 90 S 9 15 29.98 1015 10 16 0.03 0.76
11:35 pm 23:35 Partly Cloudy 70 21.1 66 18.9 87 87 SSW 6 9 30.00 1016 10 16 0.00 0.03
11:52 pm 23:52 Cloudy 69 20.6 66 18.9 90 90 S 5 7 29.98 1015 10 16 0.00 0.03

Powered by AerisWeather